Total_Precipitation_Accumulation
1.72 1.83 1.67 1.54 1.37 1.61 1.86 1.91 1.76 1.93 1.94 1.99 1.98 1.97 2.00 1.75 1.57 1.45 1.50 1.68 1.62 1.58 1.65 1.68 1.64 1.56 1.51 1.37 1.23 1.06 0.92 0.86 0.78 0.68 0.59 0.50 0.41 0.33 0.28 0.19 0.13 0.08 0.06
1.57 1.62 1.57 1.48 1.42 1.57 1.76 1.78 1.77 1.99 2.09 2.08 1.82 1.72 1.72 1.76 1.67 1.46 1.58 1.69 1.70 1.54 1.61 1.80 1.86 1.82 1.83 1.69 1.48 1.32 1.15 0.99 0.80 0.62 0.55 0.53 0.45 0.35 0.37 0.39 0.42 0.15 0.06
1.27 1.38 1.41 1.36 1.40 1.46 1.47 1.46 1.52 1.71 1.69 1.63 1.50 1.46 1.52 1.55 1.62 1.58 1.44 1.46 1.58 1.64 1.56 1.69 1.80 1.84 1.96 1.94 1.78 1.57 1.36 1.13 0.88 0.62 0.49 0.47 0.44 0.32 0.29 0.36 0.40 0.22 0.10
0.99 1.08 1.06 1.08 1.12 1.15 1.14 1.17 1.23 1.34 1.43 1.53 1.53 1.42 1.55 1.62 1.55 1.62 1.57 1.45 1.63 1.53 1.72 1.85 1.82 1.77 1.96 2.15 2.15 1.98 1.65 1.27 0.99 0.77 0.59 0.48 0.44 0.36 0.28 0.27 0.27 0.24 0.15
0.89 0.95 0.95 0.97 0.86 0.88 0.90 0.85 0.99 1.13 1.24 1.30 1.24 1.30 1.27 1.32 1.32 1.29 1.43 1.31 1.39 1.48 1.63 1.71 1.80 1.74 1.99 2.35 2.63 2.71 2.36 1.73 1.26 1.03 0.90 0.77 0.63 0.49 0.39 0.37 0.31 0.25 0.20
0.84 0.82 0.77 0.73 0.64 0.69 0.77 0.81 0.96 0.99 0.99 1.05 0.98 1.07 1.03 0.96 1.03 1.09 1.06 1.09 1.14 1.09 1.33 1.52 1.64 1.40 1.73 2.20 2.50 2.75 2.83 2.50 1.95 1.48 1.27 1.14 1.00 0.73 0.46 0.38 0.36 0.33 0.27
0.80 0.75 0.65 0.67 0.56 0.56 0.60 0.58 0.68 0.74 0.76 0.82 0.99 1.03 0.90 0.83 0.85 0.86 0.82 0.87 0.91 1.00 1.30 1.48 1.49 1.42 1.27 1.32 1.47 1.88 2.41 2.77 2.61 2.06 1.66 1.44 1.31 1.01 0.64 0.46 0.39 0.37 0.33
0.68 0.62 0.66 0.60 0.55 0.57 0.53 0.53 0.60 0.66 0.67 0.68 0.81 0.88 0.85 0.86 0.83 0.66 0.73 0.75 0.81 1.01 1.15 1.13 1.21 1.34 1.15 1.28 0.97 1.15 1.69 2.16 2.60 2.54 2.10 1.65 1.43 1.22 0.94 0.72 0.53 0.43 0.40
0.54 0.58 0.62 0.62 0.61 0.51 0.50 0.53 0.51 0.55 0.56 0.54 0.61 0.72 0.76 0.77 0.71 0.64 0.64 0.67 0.75 0.87 0.91 1.02 0.95 0.95 1.03 1.19 1.15 0.98 1.24 1.44 1.96 2.51 2.46 1.96 1.54 1.27 1.13 1.03 0.88 0.66 0.54
0.51 0.48 0.51 0.60 0.58 0.49 0.54 0.41 0.41 0.48 0.52 0.45 0.45 0.50 0.51 0.59 0.68 0.72 0.66 0.64 0.67 0.67 0.70 0.76 0.79 0.83 0.86 1.00 1.04 0.80 0.72 0.90 1.39 2.03 2.36 2.21 1.84 1.44 1.28 1.31 1.49 1.38 1.00
0.66 0.49 0.43 0.50 0.55 0.55 0.61 0.51 0.49 0.44 0.43 0.40 0.39 0.44 0.44 0.41 0.46 0.60 0.67 0.66 0.64 0.53 0.52 0.55 0.57 0.63 0.69 0.79 0.93 0.78 0.62 0.69 0.89 1.28 1.62 1.86 1.89 1.76 1.58 1.57 1.93 2.15 1.95
0.72 0.63 0.56 0.61 0.62 0.58 0.59 0.54 0.54 0.51 0.49 0.46 0.37 0.38 0.53 0.49 0.39 0.44 0.49 0.55 0.55 0.41 0.41 0.46 0.48 0.53 0.62 0.76 0.73 0.64 0.70 0.76 0.76 0.81 0.98 1.20 1.43 1.56 1.63 1.74 1.95 2.24 2.33
0.61 0.62 0.65 0.67 0.67 0.65 0.59 0.53 0.51 0.54 0.59 0.60 0.47 0.36 0.39 0.48 0.43 0.39 0.40 0.39 0.44 0.43 0.47 0.49 0.51 0.62 0.70 0.93 0.85 0.75 0.74 0.80 0.76 0.73 0.71 0.75 0.86 1.01 1.13 1.32 1.58 1.86 2.14
0.68 0.68 0.69 0.63 0.61 0.60 0.57 0.55 0.49 0.47 0.52 0.59 0.58 0.59 0.53 0.41 0.47 0.43 0.40 0.46 0.54 0.58 0.64 0.65 0.73 0.84 0.96 1.05 1.08 0.88 0.70 0.60 0.50 0.48 0.47 0.48 0.52 0.59 0.70 0.81 0.96 1.16 1.33
0.69 0.69 0.62 0.56 0.55 0.55 0.57 0.57 0.55 0.54 0.52 0.48 0.51 0.64 0.64 0.49 0.45 0.45 0.45 0.52 0.72 0.73 0.74 0.87 1.05 1.15 1.06 1.04 0.98 0.86 0.67 0.54 0.46 0.40 0.38 0.37 0.38 0.40 0.45 0.49 0.54 0.66 0.77
0.68 0.69 0.62 0.57 0.55 0.51 0.52 0.56 0.56 0.60 0.64 0.60 0.55 0.61 0.70 0.70 0.63 0.59 0.58 0.61 0.75 0.79 0.82 0.88 1.06 1.15 1.02 0.82 0.80 0.83 0.71 0.65 0.55 0.46 0.39 0.37 0.38 0.37 0.35 0.37 0.36 0.36 0.40
0.68 0.67 0.64 0.66 0.61 0.55 0.56 0.56 0.55 0.59 0.63 0.70 0.73 0.71 0.71 0.81 0.88 0.81 0.79 0.78 0.82 0.89 0.91 0.90 1.04 1.08 0.96 0.77 0.70 0.74 0.74 0.75 0.63 0.58 0.47 0.40 0.37 0.37 0.35 0.36 0.37 0.35 0.33
0.76 0.71 0.68 0.70 0.62 0.55 0.55 0.53 0.51 0.55 0.65 0.76 0.88 1.00 1.01 0.94 0.90 0.86 0.86 0.88 0.94 1.07 1.09 1.04 1.07 1.12 1.05 0.92 0.82 0.73 0.63 0.62 0.67 0.69 0.58 0.49 0.43 0.40 0.37 0.35 0.35 0.35 0.35
0.90 0.89 0.82 0.76 0.71 0.67 0.65 0.60 0.58 0.59 0.60 0.64 0.76 1.00 1.19 1.33 1.24 1.04 0.92 0.87 0.93 1.04 1.18 1.14 1.12 1.25 1.23 1.11 0.97 0.78 0.63 0.61 0.56 0.60 0.61 0.54 0.47 0.43 0.40 0.37 0.34 0.32 0.29
0.90 0.95 0.94 0.90 0.84 0.77 0.71 0.69 0.74 0.73 0.70 0.68 0.72 0.80 0.90 1.09 1.26 1.29 1.15 1.00 0.97 1.05 1.16 1.19 1.27 1.49 1.51 1.36 1.11 0.90 0.78 0.67 0.59 0.49 0.52 0.55 0.51 0.45 0.41 0.39 0.35 0.32 0.30
0.94 1.05 1.09 1.07 1.02 0.95 0.81 0.82 0.90 0.83 0.84 0.80 0.76 0.75 0.70 0.75 0.87 1.02 1.10 1.18 1.16 1.11 1.17 1.24 1.45 1.85 1.86 1.60 1.22 1.01 0.94 0.88 0.74 0.62 0.58 0.49 0.45 0.42 0.40 0.41 0.42 0.40 0.36
1.29 1.30 1.27 1.23 1.18 1.01 0.98 0.92 0.93 0.93 0.96 0.96 0.92 0.85 0.75 0.66 0.65 0.72 0.81 0.94 1.09 1.13 1.13 1.20 1.39 1.68 1.84 1.73 1.46 1.25 1.03 0.90 0.81 0.73 0.68 0.60 0.51 0.46 0.40 0.36 0.40 0.40 0.39
1.37 1.39 1.41 1.39 1.34 1.32 1.21 0.98 0.92 0.92 0.96 1.03 1.08 1.07 0.83 0.62 0.65 0.65 0.70 0.72 0.76 0.86 0.97 1.05 1.20 1.40 1.69 1.80 1.64 1.26 1.10 1.00 0.83 0.74 0.73 0.69 0.64 0.56 0.47 0.43 0.47 0.39 0.38
1.22 1.20 1.19 1.16 1.21 1.18 1.10 0.92 0.84 0.80 0.87 0.91 0.93 0.92 0.86 0.71 0.66 0.66 0.68 0.65 0.62 0.61 0.65 0.74 0.86 1.08 1.35 1.67 1.82 1.58 1.38 1.23 1.02 0.87 0.74 0.71 0.70 0.63 0.54 0.48 0.53 0.46 0.39
1.06 0.99 0.96 0.98 1.02 1.06 1.02 0.85 0.79 0.73 0.76 0.75 0.74 0.76 0.79 0.71 0.64 0.53 0.54 0.56 0.55 0.54 0.52 0.56 0.64 0.80 1.05 1.35 1.68 1.80 1.52 1.19 1.04 0.87 0.74 0.66 0.62 0.66 0.65 0.54 0.53 0.55 0.46
1.16 1.10 1.05 1.02 1.01 1.08 1.12 0.93 0.83 0.76 0.78 0.78 0.87 0.88 0.83 0.72 0.62 0.47 0.47 0.52 0.51 0.48 0.51 0.52 0.52 0.57 0.71 0.95 1.29 1.48 1.48 1.20 0.97 0.85 0.63 0.57 0.55 0.57 0.62 0.55 0.44 0.43 0.43